Weather History for KBEH - September, 2013

Change the Weather History Date:

Thursday, September 19, 2013

  Actual Average Record
Temperature  
Mean Temperature 70 °F -  
Max Temperature 73 °F 72 °F 88 °F (1978)
Min Temperature 66 °F 51 °F 37 °F (1981)
Cooling Degree Days 4    
Growing Degree Days 20 (Base 50)    
Moisture  
Dew Point 66 °F    
Average Humidity 94    
Maximum Humidity 100    
Minimum Humidity 81    
Precipitation  
Precipitation 0.76 in - - ()
Sea Level Pressure  
Sea Level Pressure 29.96 in    
Wind  
Wind Speed 6 mph (South)    
Max Wind Speed 12 mph    
Max Gust Speed 18 mph    
Visibility 6 miles    
Events Rain , Thunderstorm    
Averages and records for this station are not official NWS values.
T = Trace of Precipitation, MM = Missing Value Source: NWS Daily Summary

Daily Weather History Graph

Daily Weather History Graph

Search for Another Location

Airport or City:

Trip Planner

Search our weather history database for the weather conditions in past years. The results will help you decide how hot, cold, wet, or windy it might be!

Date:

Astronomy

Sep. 19, 2013 Rise Set
Actual Time 7:30 AM EDT 7:47 PM EDT
Civil Twilight 7:02 AM EDT 8:15 PM EDT
Nautical Twilight 6:29 AM EDT 8:48 PM EDT
Astronomical Twilight 5:55 AM EDT 9:22 PM EDT
Moon 7:44 PM EDT (9/19) 7:39 AM EDT (9/19)
Length of Visible Light 13h 13m
Length of Day
12h 17m
Full, 100% of the Moon is Illuminated
Sep 19
Full
Sep 26
Last Quarter
Oct 4
New
Oct 11
First Quarter
Oct 18
Full

Hourly Weather History & Observations

Time (EDT) Temp. Dew Point Humidity Pressure Visibility Wind Dir Wind Speed Gust Speed Precip Events Conditions
12:53 AM 68.0 °F 63.0 °F 84% 29.98 in 9.0 mi South 3.5 mph - N/A   Clear
1:53 AM 66.0 °F 64.0 °F 93% 29.98 in 7.0 mi Calm Calm - N/A   Scattered Clouds
2:53 AM 66.9 °F 64.9 °F 93% 29.98 in 6.0 mi South 4.6 mph - N/A   Mostly Cloudy
3:53 AM 66.9 °F 64.9 °F 93% 29.97 in 10.0 mi South 5.8 mph - N/A   Scattered Clouds
4:34 AM 66.2 °F 64.4 °F 94% 29.98 in 10.0 mi SSW 6.9 mph - N/A Thunderstorm Scattered Clouds
4:49 AM 66.2 °F 64.4 °F 94% 29.97 in 10.0 mi South 5.8 mph - N/A   Overcast
4:53 AM 66.9 °F 64.0 °F 90% 29.96 in 10.0 mi South 5.8 mph - N/A   Mostly Cloudy
5:08 AM 68.0 °F 64.4 °F 88% 29.98 in 10.0 mi SW 5.8 mph - N/A Thunderstorm Mostly Cloudy
5:53 AM 66.0 °F 64.9 °F 96% 29.98 in 3.0 mi SSW 5.8 mph - 0.03 in Rain , Thunderstorm Heavy Thunderstorms and Rain
6:11 AM 66.2 °F 64.4 °F 94% 29.99 in - South 5.8 mph - 0.16 in Rain , Thunderstorm Heavy Thunderstorms and Rain
6:19 AM 66.2 °F 64.4 °F 94% 29.98 in 2.0 mi South 4.6 mph - 0.21 in Rain , Thunderstorm Thunderstorms and Rain
6:26 AM 66.2 °F 64.4 °F 94% 29.98 in 2.0 mi SE 8.1 mph - 0.26 in Rain Rain
6:36 AM 66.2 °F 64.4 °F 94% 29.98 in 10.0 mi SSE 9.2 mph - 0.27 in Rain Light Rain
6:53 AM 66.0 °F 64.9 °F 96% 29.97 in 10.0 mi South 6.9 mph - 0.27 in   Overcast
7:17 AM 66.2 °F 66.2 °F 100% 29.98 in 10.0 mi SSE 8.1 mph - N/A Thunderstorm Overcast
7:53 AM 66.0 °F 64.9 °F 96% 29.96 in 10.0 mi SSE 8.1 mph - 0.02 in   Mostly Cloudy
8:53 AM 68.0 °F 66.9 °F 96% 29.96 in 8.0 mi SSE 4.6 mph - N/A Thunderstorm Overcast
9:08 AM 68.0 °F 66.2 °F 94% 29.98 in 7.0 mi South 4.6 mph - 0.00 in Rain , Thunderstorm Light Rain
9:53 AM 68.0 °F 66.0 °F 93% 29.99 in 4.0 mi South 4.6 mph - 0.02 in Rain , Thunderstorm Light Rain
10:44 AM 68.0 °F 66.2 °F 94% 29.99 in 8.0 mi ESE 3.5 mph - 0.07 in   Overcast
10:53 AM 68.0 °F 66.9 °F 96% 30.01 in 3.0 mi Calm Calm - 0.08 in Rain Light Rain
10:55 AM 68.0 °F 66.2 °F 94% 30.02 in 2.0 mi Calm Calm - 0.00 in Rain Rain
10:58 AM 68.0 °F 66.2 °F 94% 30.02 in 1.2 mi Calm Calm - 0.02 in Rain Rain
11:09 AM 68.0 °F 66.2 °F 94% 30.03 in 1.2 mi SW 3.5 mph - 0.05 in Rain , Thunderstorm Rain
11:12 AM 68.0 °F 66.2 °F 94% 30.04 in 2.0 mi SW 4.6 mph - 0.05 in Rain , Thunderstorm Light Rain
11:20 AM 68.0 °F 66.2 °F 94% 30.03 in 6.0 mi SSW 6.9 mph - 0.05 in Rain , Thunderstorm Light Thunderstorms and Rain
11:25 AM 66.2 °F 66.2 °F 100% 30.02 in 4.0 mi SSW 4.6 mph - 0.06 in Rain , Thunderstorm Light Thunderstorms and Rain
11:35 AM 66.2 °F 66.2 °F 100% 30.01 in 2.0 mi SSE 8.1 mph - 0.09 in Rain , Thunderstorm Thunderstorms and Rain
11:49 AM 66.2 °F 66.2 °F 100% 29.99 in 3.0 mi SE 6.9 mph - 0.10 in Rain , Thunderstorm Light Thunderstorms and Rain
11:53 AM 66.9 °F 66.0 °F 97% 29.99 in 4.0 mi SSE 4.6 mph - 0.11 in Rain , Thunderstorm Light Thunderstorms and Rain
12:08 PM 66.2 °F 66.2 °F 100% 30.01 in 3.0 mi South 10.4 mph - 0.03 in Rain , Thunderstorm Thunderstorms and Rain
12:29 PM 66.2 °F 66.2 °F 100% 29.98 in 4.0 mi SE 9.2 mph - 0.08 in Rain Rain
12:53 PM 66.0 °F 66.0 °F 100% 29.98 in 10.0 mi South 6.9 mph - 0.11 in Rain Light Rain
1:53 PM 66.9 °F 66.0 °F 97% 29.96 in 9.0 mi SSE 6.9 mph - 0.00 in Rain Light Rain
2:53 PM 66.9 °F 66.9 °F 100% 29.99 in 6.0 mi WSW 9.2 mph - 0.04 in Rain Light Rain
2:59 PM 66.2 °F 66.2 °F 100% 29.97 in 1.8 mi South 9.2 mph - 0.04 in Rain Heavy Rain
3:10 PM 66.2 °F 66.2 °F 100% 29.95 in 3.0 mi SSE 10.4 mph - 0.07 in Rain Rain
3:53 PM 66.9 °F 66.9 °F 100% 29.92 in 10.0 mi South 10.4 mph - 0.08 in   Clear
4:53 PM 69.1 °F 66.9 °F 93% 29.89 in 10.0 mi SSE 9.2 mph - N/A   Clear
5:53 PM 72.0 °F 66.9 °F 84% 29.87 in 10.0 mi SSE 11.5 mph - N/A   Clear
6:53 PM 73.0 °F 66.9 °F 81% 29.84 in 10.0 mi SSE 10.4 mph - N/A   Clear
7:53 PM 72.0 °F 68.0 °F 87% 29.83 in 9.0 mi SSE 9.2 mph 18.4 mph N/A   Clear
8:53 PM 72.0 °F 68.0 °F 87% 29.86 in 9.0 mi SSE 10.4 mph - N/A   Clear
9:53 PM 71.1 °F 69.1 °F 93% 29.86 in 8.0 mi SSE 9.2 mph - N/A   Clear
10:53 PM 71.1 °F 69.1 °F 93% 29.84 in 7.0 mi SSE 9.2 mph - N/A   Scattered Clouds
11:53 PM 72.0 °F 69.1 °F 91% 29.83 in 6.0 mi South 6.9 mph - N/A   Clear